Weather History for KSFB - January, 2014

Change the Weather History Date:

Tuesday, January 21, 2014

  Actual Average Record
Temperature  
Mean Temperature 62 °F -  
Max Temperature 71 °F 70 °F 85 °F (1974)
Min Temperature 54 °F 46 °F 19 °F (1985)
Degree Days  
Heating Degree Days 2    
Growing Degree Days 12 (Base 50)    
Moisture  
Dew Point 53 °F    
Average Humidity 78    
Maximum Humidity 97    
Minimum Humidity 51    
Precipitation  
Precipitation 0.07 in - - ()
Sea Level Pressure  
Sea Level Pressure 29.92 in    
Wind  
Wind Speed 9 mph (WSW)    
Max Wind Speed 21 mph    
Max Gust Speed 33 mph    
Visibility 10 miles    
Events Rain    
Averages and records for this station are not official NWS values.
T = Trace of Precipitation, MM = Missing Value Source: NWS Daily Summary

Daily Weather History Graph

Daily Weather History Graph

Search for Another Location

Airport or City:

Trip Planner

Search our weather history database for the weather conditions in past years. The results will help you decide how hot, cold, wet, or windy it might be!

Date:

Astronomy

Jan. 21, 2014 Rise Set
Actual Time 7:17 AM EST 5:55 PM EST
Civil Twilight 6:52 AM EST 6:20 PM EST
Nautical Twilight 6:23 AM EST 6:49 PM EST
Astronomical Twilight 5:55 AM EST 7:17 PM EST
Moon 10:56 PM EST (1/21) 10:14 AM EST (1/21)
Length of Visible Light 11h 27m
Length of Day
10h 37m
Waning Gibbous, 75% of the Moon is Illuminated
Jan 21
Waning Gibbous
Jan 24
Last Quarter
Jan 30
New
Feb 6
First Quarter
Feb 14
Full

Hourly Weather History & Observations

Time (EST) Temp. Dew Point Humidity Pressure Visibility Wind Dir Wind Speed Gust Speed Precip Events Conditions
12:53 AM 55.0 °F 48.0 °F 77% 30.04 in 10.0 mi SW 4.6 mph - N/A   Scattered Clouds
1:16 AM 55.4 °F 48.2 °F 77% 30.03 in 10.0 mi SSW 4.6 mph - N/A   Mostly Cloudy
1:26 AM 55.4 °F 48.2 °F 77% 30.03 in 10.0 mi SSW 4.6 mph - N/A   Scattered Clouds
1:49 AM 55.4 °F 48.2 °F 77% 30.02 in 10.0 mi SSW 4.6 mph - N/A   Mostly Cloudy
1:53 AM 55.0 °F 48.9 °F 80% 30.02 in 10.0 mi SSW 3.5 mph - N/A   Mostly Cloudy
2:18 AM 55.4 °F 51.8 °F 88% 30.01 in 10.0 mi SW 6.9 mph - N/A   Scattered Clouds
2:53 AM 55.0 °F 52.0 °F 89% 29.99 in 10.0 mi SSW 4.6 mph - N/A   Clear
3:53 AM 54.0 °F 52.0 °F 93% 29.99 in 10.0 mi SSW 4.6 mph - N/A   Clear
4:53 AM 55.0 °F 53.1 °F 93% 29.97 in 10.0 mi SW 4.6 mph - N/A   Clear
5:53 AM 55.9 °F 54.0 °F 93% 29.97 in 10.0 mi WSW 6.9 mph - N/A   Clear
6:53 AM 55.9 °F 55.0 °F 97% 29.97 in 10.0 mi West 6.9 mph - N/A   Clear
7:53 AM 57.0 °F 55.0 °F 93% 29.97 in 10.0 mi WSW 5.8 mph - N/A   Clear
8:53 AM 57.9 °F 55.0 °F 90% 29.97 in 10.0 mi WSW 6.9 mph - N/A   Clear
9:53 AM 64.9 °F 55.0 °F 70% 29.96 in 10.0 mi West 11.5 mph - N/A   Clear
10:53 AM 69.1 °F 54.0 °F 58% 29.94 in 10.0 mi WSW 13.8 mph - N/A   Clear
11:53 AM 71.1 °F 53.1 °F 53% 29.90 in 10.0 mi SW 12.7 mph - N/A   Clear
12:53 PM 71.1 °F 52.0 °F 51% 29.85 in 10.0 mi WSW 15.0 mph 21.9 mph N/A   Mostly Cloudy
1:53 PM 64.9 °F 57.0 °F 75% 29.83 in 10.0 mi WNW 17.3 mph - 0.01 in Rain Light Rain
2:16 PM 62.6 °F 57.2 °F 82% 29.84 in 2.0 mi West 16.1 mph 33.4 mph 0.05 in Rain Rain
2:25 PM 62.6 °F 57.2 °F 82% 29.84 in 10.0 mi WSW 15.0 mph 26.5 mph 0.06 in Rain Light Rain
2:53 PM 62.1 °F 59.0 °F 90% 29.83 in 10.0 mi West 8.1 mph - 0.06 in   Overcast
3:53 PM 64.9 °F 59.0 °F 81% 29.80 in 10.0 mi SW 11.5 mph - N/A   Mostly Cloudy
4:53 PM 66.0 °F 55.9 °F 70% 29.80 in 10.0 mi WSW 15.0 mph 19.6 mph N/A   Clear
5:53 PM 64.9 °F 57.0 °F 75% 29.81 in 10.0 mi WSW 16.1 mph - N/A   Clear
6:53 PM 64.9 °F 57.0 °F 75% 29.81 in 10.0 mi West 19.6 mph 24.2 mph N/A   Mostly Cloudy
7:53 PM 64.0 °F 55.9 °F 75% 29.82 in 10.0 mi West 18.4 mph 25.3 mph N/A   Partly Cloudy
8:53 PM 61.0 °F 48.9 °F 64% 29.84 in 10.0 mi West 20.7 mph 29.9 mph N/A   Clear
9:53 PM 57.0 °F 46.0 °F 67% 29.86 in 10.0 mi WNW 16.1 mph 27.6 mph N/A   Clear
10:53 PM 55.9 °F 46.9 °F 72% 29.89 in 10.0 mi WNW 13.8 mph - N/A   Clear
11:53 PM 54.0 °F 41.0 °F 62% 29.91 in 10.0 mi WNW 19.6 mph 28.8 mph N/A   Clear